Weather History for Hutchinson, MN

Change the Weather History Date:

Friday, October 4, 2013

  Actual Average Record
Temperature  
Mean Temperature 56 °F -  
Max Temperature 58 °F 65 °F 85 °F (2011)
Min Temperature 53 °F 41 °F 21 °F (1989)
Degree Days  
Heating Degree Days 10    
Growing Degree Days 6 (Base 50)    
Moisture  
Dew Point 54 °F    
Average Humidity 95    
Maximum Humidity 99    
Minimum Humidity 90    
Precipitation  
Precipitation 0.15 in - - ()
Sea Level Pressure  
Sea Level Pressure 29.93 in    
Wind  
Wind Speed 13 mph (NE)    
Max Wind Speed 21 mph    
Max Gust Speed 29 mph    
Visibility 8 miles    
Events Rain    
Averages and records for this station are not official NWS values.
T = Trace of Precipitation, MM = Missing Value Source: NWS Daily Summary

Daily Weather History Graph

Daily Weather History Graph

Search for Another Location

Airport:

Trip Planner

Search our weather history database for the weather conditions in past years. The results will help you decide how hot, cold, wet, or windy it might be!

Date:

Astronomy

Oct. 04, 2013 Rise Set
Actual Time 7:19 AM CDT 6:51 PM CDT
Civil Twilight 6:50 AM CDT 7:21 PM CDT
Nautical Twilight 6:16 AM CDT 7:55 PM CDT
Astronomical Twilight 5:42 AM CDT 8:29 PM CDT
Moon 6:56 AM CDT (10/4) 6:33 PM CDT (10/4)
Length of Visible Light 12h 30m
Length of Day
11h 32m
Waning Crescent, 0% of the Moon is Illuminated
Oct 4
Waning Crescent
Oct 4
New
Oct 11
First Quarter
Oct 18
Full
Oct 26
Last Quarter

Hourly Weather History & Observations

Time (CDT) Temp. Dew Point Humidity Pressure Visibility Wind Dir Wind Speed Gust Speed Precip Events Conditions
12:14 AM 54.7 °F 54.1 °F 98% 29.96 in 5.0 mi NNE 11.5 mph 16.1 mph N/A   Overcast
12:33 AM 54.5 °F 54.0 °F 98% 29.95 in 5.0 mi North 6.9 mph - N/A   Overcast
12:53 AM 54.5 °F 53.8 °F 97% 29.95 in 4.0 mi NNE 11.5 mph 17.3 mph N/A   Overcast
1:14 AM 54.1 °F 53.6 °F 98% 29.94 in 5.0 mi NNE 9.2 mph 20.7 mph N/A   Overcast
1:33 AM 54.0 °F 53.6 °F 99% 29.95 in 5.0 mi NNE 8.1 mph - N/A   Overcast
1:54 AM 53.6 °F 53.1 °F 98% 29.96 in 5.0 mi NNE 13.8 mph 17.3 mph N/A   Overcast
2:13 AM 53.2 °F 52.7 °F 98% 29.97 in 5.0 mi NNE 12.7 mph - N/A   Overcast
2:34 AM 53.2 °F 52.7 °F 98% 29.97 in 7.0 mi NNE 11.5 mph - N/A   Overcast
2:53 AM 53.1 °F 52.7 °F 99% 29.96 in 5.0 mi NNE 12.7 mph 17.3 mph N/A   Overcast
3:13 AM 53.1 °F 52.7 °F 99% 29.95 in 4.0 mi NNE 11.5 mph - N/A   Overcast
3:33 AM 53.1 °F 52.7 °F 99% 29.94 in 5.0 mi NE 12.7 mph 17.3 mph N/A   Overcast
3:54 AM 53.1 °F 52.7 °F 99% 29.95 in 4.0 mi NE 9.2 mph - N/A   Overcast
4:13 AM 53.2 °F 52.9 °F 99% 29.97 in 4.0 mi NE 9.2 mph 16.1 mph N/A   Overcast
4:34 AM 53.6 °F 53.1 °F 98% 29.97 in 7.0 mi NE 8.1 mph - N/A   Overcast
4:53 AM 53.6 °F 53.2 °F 99% 29.97 in 10.0 mi NE 9.2 mph - N/A   Overcast
5:13 AM 53.8 °F 53.6 °F 99% 29.95 in 10.0 mi NE 12.7 mph - N/A   Overcast
5:33 AM 53.8 °F 53.6 °F 99% 29.94 in 7.0 mi NE 11.5 mph 19.6 mph N/A   Overcast
5:54 AM 54.0 °F 53.6 °F 99% 29.96 in 7.0 mi ENE 6.9 mph 17.3 mph N/A   Overcast
6:14 AM 54.1 °F 53.6 °F 98% 29.97 in 10.0 mi NE 10.4 mph - N/A   Overcast
6:33 AM 54.5 °F 53.8 °F 97% 29.96 in 10.0 mi NE 10.4 mph - N/A   Overcast
6:53 AM 54.5 °F 53.8 °F 97% 29.97 in 10.0 mi NE 11.5 mph 19.6 mph N/A   Overcast
7:12 AM 54.7 °F 54.0 °F 97% 29.97 in 10.0 mi ENE 11.5 mph 16.1 mph N/A   Overcast
7:34 AM 54.7 °F 54.0 °F 97% 29.97 in 10.0 mi NE 12.7 mph - N/A   Overcast
7:53 AM 54.7 °F 54.0 °F 97% 29.96 in 10.0 mi NE 11.5 mph 18.4 mph N/A   Overcast
8:14 AM 54.7 °F 53.8 °F 97% 29.97 in 10.0 mi NE 10.4 mph 19.6 mph N/A   Overcast
8:33 AM 54.9 °F 53.8 °F 96% 29.97 in 10.0 mi NE 10.4 mph 18.4 mph N/A   Overcast
8:53 AM 55.0 °F 53.8 °F 96% 29.96 in 10.0 mi NE 13.8 mph 20.7 mph N/A   Overcast
9:13 AM 55.0 °F 54.0 °F 96% 29.96 in 5.0 mi NE 13.8 mph 21.9 mph N/A   Overcast
9:33 AM 55.0 °F 54.0 °F 96% 29.96 in 5.0 mi NE 15.0 mph 23.0 mph N/A   Overcast
9:39 AM 55.0 °F 54.0 °F 96% 29.96 in 7.0 mi NE 16.1 mph 23.0 mph N/A   Overcast
10:05 AM 55.4 °F 53.6 °F 94% 29.95 in 10.0 mi NE 15.0 mph 23.0 mph N/A   Overcast
10:25 AM 55.4 °F 53.6 °F 94% 29.96 in 10.0 mi NE 15.0 mph 21.9 mph N/A   Overcast
10:45 AM 55.4 °F 53.6 °F 94% 29.97 in 10.0 mi ENE 13.8 mph 21.9 mph N/A   Overcast
10:58 AM 55.8 °F 53.4 °F 92% 29.97 in 10.0 mi ENE 11.5 mph 21.9 mph N/A   Overcast
11:14 AM 55.9 °F 53.4 °F 91% 29.97 in 10.0 mi ENE 17.3 mph 25.3 mph N/A   Overcast
11:33 AM 56.3 °F 53.6 °F 91% 29.97 in 10.0 mi ENE 17.3 mph 25.3 mph N/A   Overcast
11:54 AM 56.3 °F 53.6 °F 91% 29.98 in 10.0 mi ENE 12.7 mph 24.2 mph N/A   Overcast
12:13 PM 56.3 °F 53.6 °F 91% 29.98 in 10.0 mi ENE 18.4 mph 23.0 mph N/A   Overcast
12:33 PM 56.3 °F 53.8 °F 91% 29.97 in 10.0 mi ENE 13.8 mph 19.6 mph N/A   Overcast
12:54 PM 56.3 °F 54.0 °F 92% 29.97 in 10.0 mi ENE 20.7 mph 25.3 mph N/A   Overcast
1:14 PM 56.3 °F 54.0 °F 92% 29.96 in 10.0 mi ENE 17.3 mph 24.2 mph N/A   Overcast
1:32 PM 56.7 °F 54.5 °F 92% 29.94 in 10.0 mi NE 16.1 mph 21.9 mph N/A   Overcast
1:53 PM 56.7 °F 54.5 °F 92% 29.93 in 10.0 mi NE 17.3 mph 25.3 mph N/A   Overcast
2:13 PM 57.2 °F 54.5 °F 91% 29.92 in 10.0 mi ENE 17.3 mph 24.2 mph N/A   Overcast
2:33 PM 57.2 °F 54.7 °F 91% 29.92 in 10.0 mi ENE 13.8 mph 19.6 mph N/A   Overcast
2:53 PM 57.6 °F 54.9 °F 91% 29.90 in 10.0 mi ENE 16.1 mph 25.3 mph N/A   Overcast
3:13 PM 58.1 °F 55.0 °F 90% 29.91 in 10.0 mi East 10.4 mph 20.7 mph N/A   Overcast
3:34 PM 57.7 °F 54.9 °F 90% 29.91 in 10.0 mi ENE 15.0 mph 21.9 mph N/A   Overcast
3:53 PM 57.7 °F 54.7 °F 90% 29.91 in 10.0 mi ENE 16.1 mph 24.2 mph N/A   Overcast
4:13 PM 57.6 °F 54.9 °F 91% 29.92 in 7.0 mi ENE 18.4 mph 25.3 mph N/A   Overcast
4:28 PM 57.4 °F 55.4 °F 93% 29.91 in 4.0 mi East 16.1 mph 24.2 mph N/A   Overcast
4:53 PM 57.2 °F 55.6 °F 94% 29.92 in 2.5 mi East 11.5 mph - N/A   Overcast
5:13 PM 56.8 °F 55.8 °F 96% 29.92 in 2.5 mi ENE 11.5 mph 17.3 mph N/A   Overcast
5:34 PM 57.0 °F 55.8 °F 96% 29.91 in 3.0 mi ENE 12.7 mph - N/A   Overcast
5:53 PM 57.2 °F 55.6 °F 94% 29.90 in 5.0 mi ENE 18.4 mph 21.9 mph N/A   Overcast
6:13 PM 57.2 °F 55.4 °F 94% 29.89 in 10.0 mi ENE 16.1 mph 21.9 mph N/A   Overcast
6:33 PM 57.4 °F 55.4 °F 93% 29.88 in 10.0 mi ENE 15.0 mph 21.9 mph N/A   Overcast
6:54 PM 57.6 °F 55.0 °F 91% 29.89 in 10.0 mi ENE 13.8 mph 20.7 mph N/A   Overcast
7:13 PM 57.6 °F 54.9 °F 91% 29.89 in 10.0 mi ENE 18.4 mph 24.2 mph N/A   Overcast
7:33 PM 57.6 °F 55.2 °F 92% 29.88 in 10.0 mi ENE 16.1 mph 26.5 mph N/A   Overcast
7:53 PM 57.7 °F 55.4 °F 92% 29.88 in 10.0 mi ENE 15.0 mph 28.8 mph N/A   Overcast
8:14 PM 57.7 °F 55.4 °F 92% 29.87 in 10.0 mi ENE 17.3 mph 24.2 mph N/A   Overcast
8:33 PM 57.2 °F 55.8 °F 95% 29.86 in 7.0 mi ENE 18.4 mph 24.2 mph 0.02 in Rain Light Rain
8:53 PM 57.2 °F 55.9 °F 96% 29.85 in 7.0 mi ENE 18.4 mph 26.5 mph 0.02 in   Light Drizzle
9:14 PM 57.2 °F 55.9 °F 96% 29.84 in 10.0 mi ENE 19.6 mph 25.3 mph N/A   Overcast
9:33 PM 57.2 °F 55.9 °F 96% 29.84 in 10.0 mi ENE 19.6 mph - N/A   Overcast
9:54 PM 57.2 °F 56.1 °F 96% 29.83 in 10.0 mi ENE 18.4 mph 25.3 mph N/A   Overcast
10:13 PM 57.2 °F 56.3 °F 97% 29.83 in 10.0 mi ENE 15.0 mph 27.6 mph N/A   Overcast
10:33 PM 57.2 °F 56.3 °F 97% 29.83 in 7.0 mi ENE 13.8 mph 20.7 mph 0.01 in Rain Rain
10:54 PM 57.2 °F 56.5 °F 97% 29.84 in 10.0 mi ENE 15.0 mph 21.9 mph 0.03 in Rain Heavy Rain
11:14 PM 57.2 °F 56.7 °F 98% 29.85 in 4.0 mi East 10.4 mph 17.3 mph 0.08 in Rain Heavy Rain
11:33 PM 57.2 °F 56.7 °F 98% 29.84 in 7.0 mi ENE 9.2 mph - 0.10 in Rain Light Rain
11:54 PM 57.2 °F 56.7 °F 98% 29.81 in 10.0 mi ENE 12.7 mph - 0.10 in   Overcast